Location: Rosenheim
(47.8408°N, 12.2113°E)
Time: 07:25:39
(UTC+02:00)

ISS - Visible Passes

Search period start: 29 March 2017 00:00
Search period end: 08 April 2017 00:00
Orbit: 399 x 409 km, 51.6° (Epoch: 29 March)

Date Brightness Start Highest point End Pass type
(mag) Time Alt. Az. Time Alt. Az. Time Alt. Az.
29 Mar -2.3 20:06:55 10° S 20:09:24 20° SE 20:11:54 10° E visible
29 Mar -3.5 21:42:17 10° WSW 21:45:05 62° W 21:45:05 62° W visible
30 Mar -3.9 20:49:58 10° SW 20:53:11 65° SSE 20:55:19 20° ENE visible
30 Mar -1.3 22:26:37 10° W 22:28:00 22° WNW 22:28:00 22° WNW visible
31 Mar -3.2 21:34:05 10° W 21:37:18 54° NNW 21:38:03 42° NE visible
01 Apr -3.7 20:41:35 10° WSW 20:44:51 73° NNW 20:47:57 11° ENE visible
01 Apr -1.9 22:18:28 10° WNW 22:20:37 31° NW 22:20:37 31° NW visible
02 Apr -2.8 21:25:55 10° W 21:29:04 43° N 21:30:25 27° NE visible
02 Apr -0.5 23:02:41 10° WNW 23:03:04 13° WNW 23:03:04 13° WNW visible
03 Apr -3.1 20:33:20 10° W 20:36:32 50° NNW 20:39:45 10° ENE visible
03 Apr -2.5 22:10:12 10° WNW 22:12:46 38° NNW 22:12:46 38° NNW visible
04 Apr -2.8 21:17:40 10° WNW 21:20:48 40° N 21:22:25 23° ENE visible
04 Apr -0.9 22:54:15 10° WNW 22:55:04 16° WNW 22:55:04 16° WNW visible
05 Apr -2.8 20:25:06 10° WNW 20:28:13 41° N 20:31:21 10° ENE visible
05 Apr -3.1 22:01:48 10° WNW 22:04:40 52° NNW 22:04:40 52° NNW visible
06 Apr -3.0 21:09:18 10° WNW 21:12:28 45° N 21:14:15 22° ENE visible
06 Apr -1.2 22:45:48 10° WNW 22:46:54 19° WNW 22:46:54 19° WNW visible
07 Apr -2.8 20:16:45 10° WNW 20:19:52 41° N 20:23:00 10° ENE visible
07 Apr -3.9 21:53:18 10° WNW 21:56:28 82° NW 21:56:28 82° NW visible
